Home > Weather > West Covina > Past weeks

Flag for USA Past Weather in West Covina, California, USA — Yesterday and Last 2 Weeks

Now
75 °F

Sunny.


Feels Like: 78 °F
Forecast: 58 / 78 °F
Wind: 6 mph from North

Location: Fullerton Municipal Airport

Current Time: May 30, 2016 at 3:31:17 PM

Latest Report: May 30, 2016 at 2:53 PM


Visibility: 10 mi

Pressure: 29.92 "Hg

Humidity: 48%

Dew Point: 54 °F

Location of West CovinaLocation

Past Weather in West Covina — Graph

°F

West Covina Temperature Yesterday

Maximum temperature yesterday: 74 °F (at 2:53 PM)
Minimum temperature yesterday: 62 °F (at 1:53 AM)
Average temperature yesterday: 66 °F

High & Low Weather Summary for the Past Weeks

 TemperatureHumidityPressure
High77 °F (May 18, 12:53 PM)87% (May 17, 11:53 PM)30.08 "Hg (May 17, 11:53 PM)
Low54 °F (May 21, 5:53 AM)33% (May 22, 4:53 PM)29.81 "Hg (May 19, 5:53 PM)
Average65 °F64%29.94 "Hg
* Reported May 15 2:53 PM — May 30 2:00 PM, West Covina, Weather by CustomWeather, © 2016

Note: Actual official high and low records may vary slightly from our data, if they occured in-between our weather recording intervals... More about our weather records

Advertising

West Covina Weather History for the Previous 24 Hours

Scroll right to see more
 ConditionsComfort  
Time TempWeatherWind HumidityBarometerVisibility
2:00 PM
Mon, May 30
74 °FScattered clouds.7 mph50%29.95 "Hg10 mi
12:53 PM70 °FOvercast.No wind57%29.97 "Hg10 mi
11:53 AM67 °FOvercast.No wind63%29.99 "Hg10 mi
10:53 AM67 °FOvercast.3 mph63%29.99 "Hg10 mi
9:53 AM66 °FOvercast.3 mph65%30.00 "Hg10 mi
8:53 AM64 °FOvercast.3 mph70%30.00 "Hg10 mi
7:53 AM63 °FOvercast.3 mph73%30.00 "Hg10 mi
6:53 AM62 °FOvercast.3 mph75%30.00 "Hg10 mi
5:53 AM62 °FOvercast.No wind75%29.99 "Hg10 mi
4:53 AM62 °FOvercast.No wind75%29.98 "Hg10 mi
3:53 AM62 °FOvercast.No wind78%29.98 "Hg10 mi
2:53 AM62 °FOvercast.No wind78%29.98 "Hg10 mi
1:53 AM61 °FOvercast.No wind81%29.98 "Hg10 mi
12:53 AM61 °FClear.No wind78%29.99 "Hg10 mi
11:53 PM
Sun, May 29
62 °FClear.3 mph75%29.99 "Hg10 mi
10:53 PM63 °FClear.No wind70%30.00 "Hg10 mi
9:53 PM63 °FClear.3 mph70%30.00 "Hg10 mi
8:53 PM64 °FSunny.3 mph68%29.98 "Hg10 mi
7:53 PM66 °FSunny.7 mph63%29.97 "Hg10 mi
6:53 PM69 °FPassing clouds.5 mph57%29.95 "Hg10 mi
5:53 PM72 °FSunny.6 mph49%29.94 "Hg10 mi
4:53 PM74 °FPassing clouds.8 mph46%29.94 "Hg10 mi
3:53 PM73 °FPassing clouds.7 mph48%29.95 "Hg10 mi
Weather by CustomWeather, © 2016

See weather overviewHow to use our weather pages